,,,PA_Meas_PMT16A,,PR_Meas_QMR101_102,,RH_Meas_QMH101,,SR_Meas_QMS101,,TA_Meas_QMH101,,GenWind,,GenWind,
date,time,status,PA,status,PR,status,RH,status,SR,status,TA,status,DirAvg,status,SpdAvg,
2009-04-21, 00:00:04,VALID,1009.01,VALID,0,VALID,23.2738,VALID,0,VALID,24.3937,VALID,340,VALID,0,
2009-04-21, 00:01:04,VALID,1008.97,VALID,0,VALID,23.2433,VALID,0,VALID,24.3937,VALID,340,VALID,0,
2009-04-21, 00:02:04,VALID,1008.94,VALID,0,VALID,23.2357,VALID,0.105969,VALID,24.3742,VALID,340,VALID,0,
2009-04-21, 00:03:04,VALID,1008.91,VALID,0,VALID,23.2128,VALID,0,VALID,24.3742,VALID,340,VALID,0,
2009-04-21, 00:04:04,VALID,1008.88,VALID,0,VALID,23.228,VALID,0,VALID,24.3352,VALID,340,VALID,0,
2009-04-21, 00:05:04,VALID,1008.83,VALID,0,VALID,23.2433,VALID,0,VALID,24.3352,VALID,340,VALID,0,
2009-04-21, 00:06:04,VALID,1008.82,VALID,0,VALID,23.2814,VALID,0,VALID,24.3158,VALID,340,VALID,0,
2009-04-21, 00:07:04,VALID,1008.82,VALID,0,VALID,23.3272,VALID,0.105969,VALID,24.2768,VALID,340,VALID,0,
2009-04-21, 00:08:04,VALID,1008.81,VALID,0,VALID,23.3272,VALID,0,VALID,24.2768,VALID,340,VALID,0,
2009-04-21, 00:09:04,VALID,1008.8,VALID,0,VALID,23.3272,VALID,0.105969,VALID,24.2573,VALID,340,VALID,0,
2009-04-21, 00:10:04,VALID,1008.79,VALID,0,VALID,23.3501,VALID,0.105969,VALID,24.2963,VALID,340,VALID,0,
2009-04-21, 00:11:04,VALID,1008.79,VALID,0,VALID,23.3577,VALID,0.105969,VALID,24.2768,VALID,340,VALID,0,
2009-04-21, 00:12:04,VALID,1008.74,VALID,0,VALID,23.3729,VALID,0,VALID,24.2555,VALID,340,VALID,0,
2009-04-21, 00:13:04,VALID,1008.74,VALID,0,VALID,23.3806,VALID,0,VALID,24.2573,VALID,340,VALID,0,
2009-04-21, 00:14:04,VALID,1008.72,VALID,0,VALID,23.3806,VALID,0.105969,VALID,24.2378,VALID,340,VALID,0,
2009-04-21, 00:15:04,VALID,1008.71,VALID,0,VALID,23.3806,VALID,0.105969,VALID,24.2378,VALID,340,VALID,0,
2009-04-21, 00:16:04,VALID,1008.69,VALID,0,VALID,23.3729,VALID,0.105969,VALID,24.2378,VALID,340,VALID,0,
2009-04-21, 00:17:04,VALID,1008.7,VALID,0,VALID,23.3958,VALID,0.105969,VALID,24.2183,VALID,340,VALID,0,
2009-04-21, 00:18:04,VALID,1008.66,VALID,0,VALID,23.3806,VALID,0.105969,VALID,24.197,VALID,340,VALID,0,
2009-04-21, 00:19:04,VALID,1008.65,VALID,0,VALID,23.3882,VALID,0,VALID,24.2183,VALID,340,VALID,0,
2009-04-21, 00:20:04,VALID,1008.63,VALID,0,VALID,23.3958,VALID,0,VALID,24.2183,VALID,340,VALID,0,
2009-04-21, 00:21:04,VALID,1008.61,VALID,0,VALID,23.4034,VALID,0.105969,VALID,24.2183,VALID,340,VALID,0,
2009-04-21, 00:22:04,VALID,1008.59,VALID,0,VALID,23.4034,VALID,0,VALID,24.2378,VALID,340,VALID,0,
2009-04-21, 00:23:04,VALID,1008.6,VALID,0,VALID,23.4111,VALID,0.105969,VALID,24.236,VALID,340,VALID,0,
2009-04-21, 00:24:04,VALID,1008.57,VALID,0,VALID,23.4492,VALID,0,VALID,24.2378,VALID,340,VALID,0,
2009-04-21, 00:25:04,VALID,1008.56,VALID,0,VALID,23.4492,VALID,0.105969,VALID,24.2573,VALID,340,VALID,0,
2009-04-21, 00:26:04,VALID,1008.52,VALID,0,VALID,23.4492,VALID,0.105969,VALID,24.2768,VALID,340,VALID,0,
2009-04-21, 00:27:04,VALID,1008.5,VALID,0,VALID,23.4339,VALID,0.105969,VALID,24.2573,VALID,340,VALID,0,
2009-04-21, 00:28:04,VALID,1008.47,VALID,0,VALID,23.4492,VALID,0,VALID,24.2378,VALID,340,VALID,0,
2009-04-21, 00:29:04,VALID,1008.49,VALID,0,VALID,23.4568,VALID,0,VALID,24.2378,VALID,340,VALID,0,
2009-04-21, 00:30:04,VALID,1008.49,VALID,0,VALID,23.4797,VALID,0,VALID,24.2378,VALID,340,VALID,0,
2009-04-21, 00:31:04,VALID,1008.5,VALID,0,VALID,23.4492,VALID,0,VALID,24.2378,VALID,340,VALID,0,
2009-04-21, 00:32:04,VALID,1008.5,VALID,0,VALID,23.4263,VALID,0,VALID,24.2165,VALID,340,VALID,0,
2009-04-21, 00:33:04,VALID,1008.5,VALID,0,VALID,23.4263,VALID,0,VALID,24.2378,VALID,340,VALID,0,
2009-04-21, 00:34:04,VALID,1008.51,VALID,0,VALID,23.4416,VALID,0.105969,VALID,24.2378,VALID,340,VALID,0,
2009-04-21, 00:35:04,VALID,1008.51,VALID,0,VALID,23.4492,VALID,0.105969,VALID,24.2165,VALID,340,VALID,0,
2009-04-21, 00:36:04,VALID,1008.48,VALID,0,VALID,23.4416,VALID,0.105969,VALID,24.2378,VALID,340,VALID,0,
2009-04-21, 00:37:04,VALID,1008.47,VALID,0,VALID,23.4339,VALID,0,VALID,24.2378,VALID,340,VALID,0,
2009-04-21, 00:38:04,VALID,1008.44,VALID,0,VALID,23.4111,VALID,0,VALID,24.2378,VALID,340,VALID,0,
2009-04-21, 00:39:04,VALID,1008.44,VALID,0,VALID,23.4034,VALID,0.105969,VALID,24.2378,VALID,340,VALID,0,
2009-04-21, 00:40:04,VALID,1008.42,VALID,0,VALID,23.3653,VALID,0.105969,VALID,24.2378,VALID,340,VALID,0,
2009-04-21, 00:41:04,VALID,1008.42,VALID,0,VALID,23.3729,VALID,0.105969,VALID,24.2183,VALID,340,VALID,0,
2009-04-21, 00:42:04,VALID,1008.44,VALID,0,VALID,23.3424,VALID,0.105969,VALID,24.2378,VALID,340,VALID,0,
2009-04-21, 00:43:04,VALID,1008.44,VALID,0,VALID,23.3729,VALID,0.105969,VALID,24.2378,VALID,340,VALID,0,
2009-04-21, 00:44:04,VALID,1008.43,VALID,0,VALID,23.3348,VALID,0,VALID,24.2378,VALID,340,VALID,0,
2009-04-21, 00:45:04,VALID,1008.41,VALID,0,VALID,23.3348,VALID,0,VALID,24.2981,VALID,340,VALID,0,
2009-04-21, 00:46:04,VALID,1008.42,VALID,0,VALID,23.3348,VALID,0.105969,VALID,24.2768,VALID,340,VALID,0,
2009-04-21, 00:47:04,VALID,1008.43,VALID,0,VALID,23.3196,VALID,0,VALID,24.2768,VALID,340,VALID,0,
2009-04-21, 00:48:04,VALID,1008.42,VALID,0,VALID,23.2967,VALID,0,VALID,24.2963,VALID,340,VALID,0,
2009-04-21, 00:49:04,VALID,1008.44,VALID,0,VALID,23.2738,VALID,0,VALID,24.2573,VALID,340,VALID,0,
2009-04-21, 00:50:04,VALID,1008.44,VALID,0,VALID,23.2662,VALID,0,VALID,24.2573,VALID,340,VALID,0,
2009-04-21, 00:51:04,VALID,1008.47,VALID,0,VALID,23.2433,VALID,0,VALID,24.2573,VALID,340,VALID,0,
2009-04-21, 00:52:04,VALID,1008.45,VALID,0,VALID,23.228,VALID,0,VALID,24.2573,VALID,340,VALID,0,
2009-04-21, 00:53:04,VALID,1008.42,VALID,0,VALID,23.2128,VALID,0.105969,VALID,24.2768,VALID,340,VALID,0,
2009-04-21, 00:54:04,VALID,1008.37,VALID,0,VALID,23.2128,VALID,0,VALID,24.2573,VALID,340,VALID,0,
2009-04-21, 00:55:04,VALID,1008.36,VALID,0,VALID,23.1747,VALID,0,VALID,24.2786,VALID,340,VALID,0,
2009-04-21, 00:56:04,VALID,1008.36,VALID,0,VALID,23.1747,VALID,0,VALID,24.2573,VALID,340,VALID,0,
2009-04-21, 00:57:04,VALID,1008.33,VALID,0,VALID,23.167,VALID,0,VALID,24.2378,VALID,340,VALID,0,
2009-04-21, 00:58:04,VALID,1008.35,VALID,0,VALID,23.1594,VALID,0,VALID,24.2183,VALID,340,VALID,0,
2009-04-21, 00:59:04,VALID,1008.36,VALID,0,VALID,23.1442,VALID,0,VALID,24.2396,VALID,340,VALID,0,
2009-04-21, 01:00:04,VALID,1008.39,VALID,0,VALID,23.106,VALID,0,VALID,24.2378,VALID,340,VALID,0,
2009-04-21, 01:01:04,VALID,1008.4,VALID,0,VALID,23.1137,VALID,0,VALID,24.2396,VALID,340,VALID,0,
2009-04-21, 01:02:04,VALID,1008.42,VALID,0,VALID,23.0908,VALID,0,VALID,24.2378,VALID,340,VALID,0,
2009-04-21, 01:03:04,VALID,1008.4,VALID,0,VALID,23.106,VALID,0,VALID,24.2378,VALID,340,VALID,0,
2009-04-21, 01:04:04,VALID,1008.4,VALID,0,VALID,23.0832,VALID,0,VALID,24.2591,VALID,340,VALID,0,
2009-04-21, 01:05:04,VALID,1008.42,VALID,0,VALID,23.0603,VALID,0,VALID,24.2396,VALID,340,VALID,0,
2009-04-21, 01:06:04,VALID,1008.44,VALID,0,VALID,23.0374,VALID,0,VALID,24.2183,VALID,340,VALID,0,
2009-04-21, 01:07:04,VALID,1008.44,VALID,0,VALID,23.0222,VALID,0,VALID,24.2396,VALID,340,VALID,0,
2009-04-21, 01:08:04,VALID,1008.49,VALID,0,VALID,23.0145,VALID,0,VALID,24.2396,VALID,340,VALID,0,
2009-04-21, 01:09:04,VALID,1008.51,VALID,0,VALID,23.0145,VALID,0,VALID,24.2396,VALID,340,VALID,0,
2009-04-21, 01:10:04,VALID,1008.51,VALID,0,VALID,23.0222,VALID,0,VALID,24.2183,VALID,340,VALID,0,
2009-04-21, 01:11:04,VALID,1008.53,VALID,0,VALID,23.0069,VALID,0,VALID,24.1988,VALID,340,VALID,0,
2009-04-21, 01:12:04,VALID,1008.49,VALID,0,VALID,22.984,VALID,0,VALID,24.2183,VALID,340,VALID,0,
2009-04-21, 01:13:04,VALID,1008.5,VALID,0,VALID,22.984,VALID,0,VALID,24.2202,VALID,340,VALID,0,
2009-04-21, 01:14:04,VALID,1008.5,VALID,0,VALID,22.984,VALID,0,VALID,24.2007,VALID,340,VALID,0,
2009-04-21, 01:15:04,VALID,1008.46,VALID,0,VALID,22.9764,VALID,0,VALID,24.1793,VALID,340,VALID,0,
2009-04-21, 01:16:04,VALID,1008.44,VALID,0,VALID,22.9611,VALID,0,VALID,24.1812,VALID,340,VALID,0,
2009-04-21, 01:17:04,VALID,1008.42,VALID,0,VALID,22.9611,VALID,0,VALID,24.1599,VALID,340,VALID,0,
2009-04-21, 01:18:04,VALID,1008.4,VALID,0,VALID,22.9459,VALID,0,VALID,24.1404,VALID,340,VALID,0,
2009-04-21, 01:19:04,VALID,1008.38,VALID,0,VALID,22.9535,VALID,0,VALID,24.1617,VALID,340,VALID,0,
2009-04-21, 01:20:04,VALID,1008.35,VALID,0,VALID,22.923,VALID,0,VALID,24.1617,VALID,340,VALID,0,
2009-04-21, 01:21:04,VALID,1008.33,VALID,0,VALID,22.9154,VALID,0,VALID,24.1404,VALID,340,VALID,0,
2009-04-21, 01:22:04,VALID,1008.34,VALID,0,VALID,22.9078,VALID,0,VALID,24.1404,VALID,340,VALID,0,
2009-04-21, 01:23:04,VALID,1008.32,VALID,0,VALID,22.9001,VALID,0,VALID,24.1404,VALID,340,VALID,0,
2009-04-21, 01:24:04,VALID,1008.35,VALID,0,VALID,22.9154,VALID,0,VALID,24.1617,VALID,340,VALID,0,
2009-04-21, 01:25:04,VALID,1008.37,VALID,0,VALID,22.9078,VALID,0,VALID,24.1617,VALID,340,VALID,0,
2009-04-21, 01:26:04,VALID,1008.36,VALID,0,VALID,22.9001,VALID,0,VALID,24.1404,VALID,340,VALID,0,
2009-04-21, 01:27:04,VALID,1008.38,VALID,0,VALID,22.9078,VALID,0,VALID,24.1617,VALID,340,VALID,0,
2009-04-21, 01:28:04,VALID,1008.37,VALID,0,VALID,22.9001,VALID,0,VALID,24.1209,VALID,340,VALID,0,
2009-04-21, 01:29:04,VALID,1008.38,VALID,0,VALID,22.8849,VALID,0,VALID,24.1404,VALID,340,VALID,0,
2009-04-21, 01:30:04,VALID,1008.38,VALID,0,VALID,22.8849,VALID,0,VALID,24.1404,VALID,340,VALID,0,
2009-04-21, 01:31:04,VALID,1008.38,VALID,0,VALID,22.8773,VALID,0.105969,VALID,24.1404,VALID,340,VALID,0,
2009-04-21, 01:32:04,VALID,1008.39,VALID,0,VALID,22.862,VALID,0,VALID,24.1599,VALID,340,VALID,0,
2009-04-21, 01:33:04,VALID,1008.39,VALID,0,VALID,22.8239,VALID,0,VALID,24.1404,VALID,340,VALID,0,
2009-04-21, 01:34:04,VALID,1008.38,VALID,0,VALID,22.8086,VALID,0,VALID,24.1404,VALID,340,VALID,0,
2009-04-21, 01:35:04,VALID,1008.39,VALID,0,VALID,22.7858,VALID,0,VALID,24.1599,VALID,340,VALID,0,
2009-04-21, 01:36:04,VALID,1008.4,VALID,0,VALID,22.7705,VALID,0,VALID,24.1599,VALID,340,VALID,0,
2009-04-21, 01:37:04,VALID,1008.38,VALID,0,VALID,22.7552,VALID,0,VALID,24.1793,VALID,340,VALID,0,
2009-04-21, 01:38:04,VALID,1008.38,VALID,0,VALID,22.7552,VALID,0,VALID,24.1812,VALID,340,VALID,0,
2009-04-21, 01:39:04,VALID,1008.33,VALID,0,VALID,22.7476,VALID,0,VALID,24.1793,VALID,340,VALID,0,
2009-04-21, 01:40:04,VALID,1008.36,VALID,0,VALID,22.7247,VALID,0,VALID,24.1812,VALID,340,VALID,0,
2009-04-21, 01:41:04,VALID,1008.34,VALID,0,VALID,22.7171,VALID,0,VALID,24.1599,VALID,340,VALID,0,
2009-04-21, 01:42:04,VALID,1008.31,VALID,0,VALID,22.7095,VALID,0,VALID,24.1404,VALID,340,VALID,0,
2009-04-21, 01:43:04,VALID,1008.24,VALID,0,VALID,22.6942,VALID,0,VALID,24.1599,VALID,340,VALID,0,
2009-04-21, 01:44:04,VALID,1008.27,VALID,0,VALID,22.6866,VALID,0,VALID,24.1404,VALID,340,VALID,0,
2009-04-21, 01:45:04,VALID,1008.24,VALID,0,VALID,22.6714,VALID,0.105969,VALID,24.1404,VALID,340,VALID,0,
2009-04-21, 01:46:04,VALID,1008.23,VALID,0,VALID,22.6561,VALID,0,VALID,24.1404,VALID,340,VALID,0,
2009-04-21, 01:47:04,VALID,1008.25,VALID,0,VALID,22.6332,VALID,0,VALID,24.1404,VALID,340,VALID,0,
2009-04-21, 01:48:04,VALID,1008.24,VALID,0,VALID,22.6104,VALID,0,VALID,24.1404,VALID,340,VALID,0,
2009-04-21, 01:49:04,VALID,1008.25,VALID,0,VALID,22.6027,VALID,0.105969,VALID,24.1599,VALID,340,VALID,0,
2009-04-21, 01:50:04,VALID,1008.26,VALID,0,VALID,22.5875,VALID,0,VALID,24.1599,VALID,340,VALID,0,
2009-04-21, 01:51:04,VALID,1008.29,VALID,0,VALID,22.5646,VALID,0,VALID,24.1599,VALID,340,VALID,0,
2009-04-21, 01:52:04,VALID,1008.27,VALID,0,VALID,22.5494,VALID,0,VALID,24.1599,VALID,340,VALID,0,
2009-04-21, 01:53:04,VALID,1008.23,VALID,0,VALID,22.5494,VALID,0,VALID,24.1599,VALID,340,VALID,0,
2009-04-21, 01:54:04,VALID,1008.22,VALID,0,VALID,22.5494,VALID,0,VALID,24.1599,VALID,340,VALID,0,
2009-04-21, 01:55:04,VALID,1008.22,VALID,0,VALID,22.5722,VALID,0,VALID,24.1599,VALID,340,VALID,0,
2009-04-21, 01:56:04,VALID,1008.22,VALID,0,VALID,22.5646,VALID,0,VALID,24.1599,VALID,340,VALID,0,
2009-04-21, 01:57:04,VALID,1008.2,VALID,0,VALID,22.557,VALID,0,VALID,24.1599,VALID,340,VALID,0,
2009-04-21, 01:58:04,VALID,1008.2,VALID,0,VALID,22.5417,VALID,0,VALID,24.1404,VALID,340,VALID,0,
2009-04-21, 01:59:04,VALID,1008.16,VALID,0,VALID,22.5341,VALID,0,VALID,24.1617,VALID,340,VALID,0,
2009-04-21, 02:00:04,VALID,1008.15,VALID,0,VALID,22.5189,VALID,0.105969,VALID,24.1209,VALID,340,VALID,0,
2009-04-21, 02:01:04,VALID,1008.16,VALID,0,VALID,22.5341,VALID,0,VALID,24.1404,VALID,340,VALID,0,
2009-04-21, 02:02:04,VALID,1008.13,VALID,0,VALID,22.4883,VALID,0,VALID,24.1404,VALID,340,VALID,0,
2009-04-21, 02:03:04,VALID,1008.11,VALID,0,VALID,22.4731,VALID,0,VALID,24.1404,VALID,340,VALID,0,
2009-04-21, 02:04:04,VALID,1008.08,VALID,0,VALID,22.4655,VALID,0,VALID,24.1404,VALID,340,VALID,0,
2009-04-21, 02:05:04,VALID,1008.11,VALID,0,VALID,22.4273,VALID,0,VALID,24.1599,VALID,340,VALID,0,
2009-04-21, 02:06:04,VALID,1008.07,VALID,0,VALID,22.4273,VALID,0,VALID,24.1599,VALID,340,VALID,0,
2009-04-21, 02:07:04,VALID,1008.08,VALID,0,VALID,22.3816,VALID,0,VALID,24.1812,VALID,340,VALID,0,
2009-04-21, 02:08:04,VALID,1008.06,VALID,0,VALID,22.3587,VALID,0,VALID,24.1404,VALID,340,VALID,0,
2009-04-21, 02:09:04,VALID,1008.06,VALID,0,VALID,22.3358,VALID,0,VALID,24.1209,VALID,340,VALID,0,
2009-04-21, 02:10:04,VALID,1008.06,VALID,0,VALID,22.3358,VALID,0,VALID,24.1014,VALID,340,VALID,0,
2009-04-21, 02:11:04,VALID,1008.06,VALID,0,VALID,22.3358,VALID,0.105969,VALID,24.1209,VALID,340,VALID,0,
2009-04-21, 02:12:04,VALID,1008.07,VALID,0,VALID,22.3511,VALID,0,VALID,24.1227,VALID,340,VALID,0,
2009-04-21, 02:13:04,VALID,1008.05,VALID,0,VALID,22.3587,VALID,0,VALID,24.1014,VALID,340,VALID,0,
2009-04-21, 02:14:04,VALID,1008.05,VALID,0,VALID,22.3587,VALID,0,VALID,24.0624,VALID,340,VALID,0,
2009-04-21, 02:15:04,VALID,1008.02,VALID,0,VALID,22.3663,VALID,0,VALID,24.0643,VALID,340,VALID,0,
2009-04-21, 02:16:04,VALID,1008.03,VALID,0,VALID,22.3511,VALID,0,VALID,24.0643,VALID,340,VALID,0,
2009-04-21, 02:17:04,VALID,1008.02,VALID,0,VALID,22.3511,VALID,0,VALID,24.0429,VALID,340,VALID,0,
2009-04-21, 02:18:04,VALID,1008.02,VALID,0,VALID,22.3358,VALID,0,VALID,24.0216,VALID,340,VALID,0,
2009-04-21, 02:19:04,VALID,1008.01,VALID,0,VALID,22.3282,VALID,0.105969,VALID,24.0429,VALID,340,VALID,0,
2009-04-21, 02:20:04,VALID,1008,VALID,0,VALID,22.3435,VALID,0,VALID,24.0429,VALID,340,VALID,0,
2009-04-21, 02:21:04,VALID,1007.96,VALID,0,VALID,22.4045,VALID,0,VALID,24.0429,VALID,340,VALID,0,
2009-04-21, 02:22:04,VALID,1007.95,VALID,0,VALID,22.3892,VALID,0,VALID,24.0643,VALID,340,VALID,0,
2009-04-21, 02:23:04,VALID,1007.93,VALID,0,VALID,22.374,VALID,0,VALID,24.0448,VALID,340,VALID,0,
2009-04-21, 02:24:04,VALID,1007.93,VALID,0,VALID,22.3663,VALID,0,VALID,24.0235,VALID,340,VALID,0,
2009-04-21, 02:25:04,VALID,1007.9,VALID,0,VALID,22.3587,VALID,0,VALID,24.004,VALID,340,VALID,0,
2009-04-21, 02:26:04,VALID,1007.93,VALID,0,VALID,22.3816,VALID,0,VALID,24.004,VALID,342,VALID,0,
2009-04-21, 02:27:04,VALID,1007.88,VALID,0,VALID,22.3816,VALID,0.105969,VALID,24.004,VALID,342,VALID,0,
2009-04-21, 02:28:04,VALID,1007.89,VALID,0,VALID,22.3816,VALID,0,VALID,24.004,VALID,342,VALID,0,
2009-04-21, 02:29:04,VALID,1007.89,VALID,0,VALID,22.3511,VALID,0,VALID,23.9845,VALID,342,VALID,0,
2009-04-21, 02:30:04,VALID,1007.89,VALID,0,VALID,22.3816,VALID,0,VALID,24.004,VALID,342,VALID,0,
2009-04-21, 02:31:04,VALID,1007.9,VALID,0,VALID,22.3511,VALID,0,VALID,23.9845,VALID,342,VALID,0,
2009-04-21, 02:32:04,VALID,1007.91,VALID,0,VALID,22.313,VALID,0,VALID,23.9845,VALID,342,VALID,0,
2009-04-21, 02:33:04,VALID,1007.93,VALID,0,VALID,22.3358,VALID,0,VALID,23.9845,VALID,342,VALID,0,
2009-04-21, 02:34:04,VALID,1007.95,VALID,0,VALID,22.3282,VALID,0,VALID,24.004,VALID,342,VALID,0,
2009-04-21, 02:35:04,VALID,1007.98,VALID,0,VALID,22.3435,VALID,0,VALID,24.004,VALID,342,VALID,0,
2009-04-21, 02:36:04,VALID,1008,VALID,0,VALID,22.3435,VALID,0,VALID,24.0448,VALID,342,VALID,0,
2009-04-21, 02:37:04,VALID,1008,VALID,0,VALID,22.3206,VALID,0,VALID,24.0643,VALID,342,VALID,0,
2009-04-21, 02:38:04,VALID,1008,VALID,0,VALID,22.3358,VALID,0,VALID,24.0429,VALID,342,VALID,0,
2009-04-21, 02:39:04,VALID,1008.01,VALID,0,VALID,22.2977,VALID,0,VALID,24.0624,VALID,342,VALID,0,
2009-04-21, 02:40:04,VALID,1008.02,VALID,0,VALID,22.2519,VALID,0,VALID,24.0819,VALID,342,VALID,0,
2009-04-21, 02:41:04,VALID,1008,VALID,0,VALID,22.2367,VALID,0,VALID,24.0819,VALID,342,VALID,0,
2009-04-21, 02:42:04,VALID,1008,VALID,0,VALID,22.1986,VALID,0,VALID,24.1014,VALID,342,VALID,0,
2009-04-21, 02:43:04,VALID,1007.98,VALID,0,VALID,22.1833,VALID,0.105969,VALID,24.0819,VALID,342,VALID,0,
2009-04-21, 02:44:04,VALID,1007.98,VALID,0,VALID,22.1681,VALID,0,VALID,24.1014,VALID,342,VALID,0,
2009-04-21, 02:45:04,VALID,1007.98,VALID,0,VALID,22.1681,VALID,0.105969,VALID,24.1014,VALID,342,VALID,0,
2009-04-21, 02:46:04,VALID,1007.99,VALID,0,VALID,22.1681,VALID,0,VALID,24.0819,VALID,342,VALID,0,
2009-04-21, 02:47:04,VALID,1008.02,VALID,0,VALID,22.1604,VALID,0,VALID,24.0837,VALID,342,VALID,0,
2009-04-21, 02:48:04,VALID,1008.03,VALID,0,VALID,22.1681,VALID,0,VALID,24.0624,VALID,342,VALID,0,
2009-04-21, 02:49:04,VALID,1008.03,VALID,0,VALID,22.1681,VALID,0,VALID,24.0624,VALID,342,VALID,0,
2009-04-21, 02:50:04,VALID,1008.04,VALID,0,VALID,22.1757,VALID,0,VALID,24.0429,VALID,342,VALID,0,
2009-04-21, 02:51:04,VALID,1008.03,VALID,0,VALID,22.1757,VALID,0,VALID,24.0429,VALID,342,VALID,0,
2009-04-21, 02:52:04,VALID,1008.02,VALID,0,VALID,22.1528,VALID,0,VALID,24.0429,VALID,342,VALID,0,
2009-04-21, 02:53:04,VALID,1007.99,VALID,0,VALID,22.1757,VALID,0.105969,VALID,24.0235,VALID,342,VALID,0,
2009-04-21, 02:54:04,VALID,1008.01,VALID,0,VALID,22.1681,VALID,0.105969,VALID,24.004,VALID,342,VALID,0,
2009-04-21, 02:55:04,VALID,1008.02,VALID,0,VALID,22.1604,VALID,0.105969,VALID,24.004,VALID,342,VALID,0,
2009-04-21, 02:56:04,VALID,1008.03,VALID,0,VALID,22.1452,VALID,0.105969,VALID,23.9845,VALID,342,VALID,0,
2009-04-21, 02:57:04,VALID,1008.03,VALID,0,VALID,22.1528,VALID,0,VALID,24.004,VALID,342,VALID,0,
2009-04-21, 02:58:04,VALID,1008.02,VALID,0,VALID,22.1528,VALID,0.105969,VALID,24.004,VALID,342,VALID,0,
2009-04-21, 02:59:04,VALID,1007.99,VALID,0,VALID,22.1452,VALID,0.105969,VALID,24.004,VALID,342,VALID,0,
2009-04-21, 03:00:04,VALID,1007.99,VALID,0,VALID,22.1376,VALID,0.105969,VALID,24.004,VALID,342,VALID,0,
2009-04-21, 03:01:04,VALID,1008,VALID,0,VALID,22.1299,VALID,0.105969,VALID,24.004,VALID,342,VALID,0,
2009-04-21, 03:02:04,VALID,1007.98,VALID,0,VALID,22.1071,VALID,0.105969,VALID,24.0235,VALID,342,VALID,0,
2009-04-21, 03:03:04,VALID,1007.99,VALID,0,VALID,22.0918,VALID,0.105969,VALID,24.004,VALID,342,VALID,0,
2009-04-21, 03:04:04,VALID,1008,VALID,0,VALID,22.0689,VALID,0.105969,VALID,24.004,VALID,342,VALID,0,
2009-04-21, 03:05:04,VALID,1008.02,VALID,0,VALID,22.0766,VALID,0,VALID,24.004,VALID,342,VALID,0,
2009-04-21, 03:06:04,VALID,1007.99,VALID,0,VALID,22.0842,VALID,0,VALID,24.004,VALID,342,VALID,0,
2009-04-21, 03:07:04,VALID,1007.99,VALID,0,VALID,22.0766,VALID,0,VALID,24.0253,VALID,342,VALID,0,
2009-04-21, 03:08:04,VALID,1007.97,VALID,0,VALID,22.0689,VALID,0,VALID,24.0235,VALID,342,VALID,0,
2009-04-21, 03:09:04,VALID,1007.99,VALID,0,VALID,22.0537,VALID,0,VALID,24.0448,VALID,342,VALID,0,
2009-04-21, 03:10:04,VALID,1007.98,VALID,0,VALID,21.9774,VALID,0.105969,VALID,24.0235,VALID,342,VALID,0,
2009-04-21, 03:11:04,VALID,1007.97,VALID,0,VALID,22.0461,VALID,0,VALID,24.0235,VALID,342,VALID,0,
2009-04-21, 03:12:04,VALID,1007.93,VALID,0,VALID,22.0308,VALID,0,VALID,24.004,VALID,342,VALID,0,
2009-04-21, 03:13:04,VALID,1007.95,VALID,0,VALID,22.0232,VALID,0,VALID,24.0253,VALID,342,VALID,0,
2009-04-21, 03:14:04,VALID,1007.95,VALID,0,VALID,21.9927,VALID,0,VALID,24.004,VALID,342,VALID,0,
2009-04-21, 03:15:04,VALID,1007.92,VALID,0,VALID,22.0308,VALID,0.105969,VALID,24.004,VALID,342,VALID,0,
2009-04-21, 03:16:04,VALID,1007.95,VALID,0,VALID,22.0079,VALID,0,VALID,24.004,VALID,342,VALID,0,
2009-04-21, 03:17:04,VALID,1007.96,VALID,0,VALID,22.0003,VALID,0,VALID,24.004,VALID,342,VALID,0,
2009-04-21, 03:18:04,VALID,1007.99,VALID,0,VALID,22.0003,VALID,0.105969,VALID,23.9827,VALID,342,VALID,0,
2009-04-21, 03:19:04,VALID,1007.99,VALID,0,VALID,21.985,VALID,0.105969,VALID,23.9827,VALID,342,VALID,0,
2009-04-21, 03:20:04,VALID,1007.98,VALID,0,VALID,21.985,VALID,0.105969,VALID,23.9827,VALID,342,VALID,0,
2009-04-21, 03:21:04,VALID,1007.96,VALID,0,VALID,21.9774,VALID,0,VALID,23.9845,VALID,52,VALID,0,
2009-04-21, 03:22:04,VALID,1007.94,VALID,0,VALID,21.9622,VALID,0,VALID,23.9845,VALID,52,VALID,0,
2009-04-21, 03:23:04,VALID,1007.94,VALID,0,VALID,21.9622,VALID,0,VALID,24.004,VALID,52,VALID,0,
2009-04-21, 03:24:04,VALID,1007.92,VALID,0,VALID,21.9317,VALID,0,VALID,23.9845,VALID,49,VALID,0,
2009-04-21, 03:25:04,VALID,1007.93,VALID,0,VALID,21.9317,VALID,0.105969,VALID,23.9845,VALID,49,VALID,0,
2009-04-21, 03:26:04,VALID,1007.96,VALID,0,VALID,21.9164,VALID,0.105969,VALID,23.9845,VALID,49,VALID,0,
2009-04-21, 03:27:04,VALID,1007.93,VALID,0,VALID,21.9393,VALID,0.105969,VALID,23.9845,VALID,49,VALID,0,
2009-04-21, 03:28:04,VALID,1007.93,VALID,0,VALID,21.9012,VALID,0.105969,VALID,23.9845,VALID,47,VALID,0,
2009-04-21, 03:29:04,VALID,1007.89,VALID,0,VALID,21.8859,VALID,0,VALID,23.9863,VALID,47,VALID,0,
2009-04-21, 03:30:04,VALID,1007.89,VALID,0,VALID,21.863,VALID,0,VALID,23.9668,VALID,47,VALID,0,
2009-04-21, 03:31:04,VALID,1007.85,VALID,0,VALID,21.8554,VALID,0,VALID,23.9863,VALID,48,VALID,0,
2009-04-21, 03:32:04,VALID,1007.83,VALID,0,VALID,21.8478,VALID,0,VALID,23.9668,VALID,48,VALID,0,
2009-04-21, 03:33:04,VALID,1007.82,VALID,0,VALID,21.8097,VALID,0,VALID,23.9668,VALID,48,VALID,0,
2009-04-21, 03:34:04,VALID,1007.81,VALID,0,VALID,21.8097,VALID,0,VALID,23.9668,VALID,48,VALID,0,
2009-04-21, 03:35:04,VALID,1007.83,VALID,0,VALID,21.7715,VALID,0,VALID,23.9668,VALID,48,VALID,0,
2009-04-21, 03:36:04,VALID,1007.83,VALID,0,VALID,21.7563,VALID,0,VALID,23.9668,VALID,48,VALID,0,
2009-04-21, 03:37:04,VALID,1007.85,VALID,0,VALID,21.741,VALID,0,VALID,23.9668,VALID,48,VALID,0,
2009-04-21, 03:38:04,VALID,1007.87,VALID,0,VALID,21.7334,VALID,0,VALID,23.9668,VALID,48,VALID,0,
2009-04-21, 03:39:04,VALID,1007.85,VALID,0,VALID,21.7029,VALID,0,VALID,23.9668,VALID,48,VALID,0,
2009-04-21, 03:40:04,VALID,1007.86,VALID,0,VALID,21.68,VALID,0,VALID,23.9863,VALID,48,VALID,0,
2009-04-21, 03:41:04,VALID,1007.87,VALID,0,VALID,21.6495,VALID,0,VALID,23.9668,VALID,48,VALID,0,
2009-04-21, 03:42:04,VALID,1007.85,VALID,0,VALID,21.6266,VALID,0,VALID,23.9668,VALID,48,VALID,0,
2009-04-21, 03:43:04,VALID,1007.82,VALID,0,VALID,21.619,VALID,0,VALID,23.9668,VALID,48,VALID,0,
2009-04-21, 03:44:04,VALID,1007.84,VALID,0,VALID,21.5885,VALID,0,VALID,23.965,VALID,48,VALID,0,
2009-04-21, 03:45:04,VALID,1007.82,VALID,0,VALID,21.5809,VALID,0.105969,VALID,23.965,VALID,48,VALID,0,
2009-04-21, 03:46:04,VALID,1007.83,VALID,0,VALID,21.5733,VALID,0,VALID,23.9863,VALID,48,VALID,0,
2009-04-21, 03:47:04,VALID,1007.82,VALID,0,VALID,21.558,VALID,0.105969,VALID,23.965,VALID,48,VALID,0,
2009-04-21, 03:48:04,VALID,1007.83,VALID,0,VALID,21.5351,VALID,0.105969,VALID,23.965,VALID,48,VALID,0,
2009-04-21, 03:49:04,VALID,1007.82,VALID,0,VALID,21.5199,VALID,0,VALID,23.9437,VALID,48,VALID,0,
2009-04-21, 03:50:04,VALID,1007.83,VALID,0,VALID,21.5351,VALID,0.105969,VALID,23.965,VALID,48,VALID,0,
2009-04-21, 03:51:04,VALID,1007.82,VALID,0,VALID,21.5199,VALID,0.105969,VALID,23.9455,VALID,48,VALID,0,
2009-04-21, 03:52:04,VALID,1007.83,VALID,0,VALID,21.5123,VALID,0,VALID,23.9455,VALID,48,VALID,0,
2009-04-21, 03:53:04,VALID,1007.84,VALID,0,VALID,21.5046,VALID,0,VALID,23.9455,VALID,48,VALID,0,
2009-04-21, 03:54:04,VALID,1007.83,VALID,0,VALID,21.497,VALID,0,VALID,23.9455,VALID,48,VALID,0,
2009-04-21, 03:55:04,VALID,1007.82,VALID,0,VALID,21.4741,VALID,0.105969,VALID,23.9455,VALID,48,VALID,0,
2009-04-21, 03:56:04,VALID,1007.85,VALID,0,VALID,21.4741,VALID,0,VALID,23.9455,VALID,48,VALID,0,